GFSFLT2_925_spd_024.txt.gz
Wind_Speed
10 8 7 7 5 4 3 3 4 5 4 4 3 3 2 2 1 1 1 2 1 1 1 1 1 1 1 1 1 1 2 3
7 6 4 4 2 2 2 4 4 5 4 4 3 4 4 3 4 2 2 2 2 2 2 3 3 3 3 3 3 4 4 4
6 4 3 2 1 0 3 3 3 5 5 3 4 1 2 3 1 1 1 2 2 3 4 4 5 7 7 6 6 6 6 6
7 7 5 2 1 2 1 1 0 1 2 2 2 1 2 1 3 4 6 6 6 7 8 8 5 5 6 7 5 6 7 7
8 6 4 2 3 2 3 3 2 2 2 2 3 4 5 5 5 7 7 9 6 7 7 5 6 6 6 7 7 8 8 7
8 6 4 3 2 2 3 4 4 4 5 5 6 7 7 8 8 9 9 9 10 9 8 7 7 7 8 8 8 8 8 8
9 8 5 4 3 2 3 4 4 5 6 6 6 8 8 9 9 10 10 10 11 11 10 10 10 9 8 8 8 8 7 7
9 8 7 5 4 3 2 2 3 4 6 6 7 7 9 10 11 11 11 10 11 11 12 12 11 10 10 9 9 9 8 8
10 10 9 7 5 3 3 3 3 4 5 6 7 8 9 11 12 12 12 12 13 12 13 13 13 12 12 12 11 11 11 11
11 11 10 8 6 4 4 4 5 5 6 6 8 9 10 12 14 14 13 14 14 14 15 15 15 15 14 14 14 13 13 13
12 13 11 8 5 5 5 6 5 5 6 7 8 10 11 13 16 17 16 17 17 17 18 17 18 17 17 17 16 16 15 15
10 9 7 5 5 5 6 6 7 7 8 8 10 11 11 13 16 20 19 20 21 21 22 21 21 21 21 20 20 20 19 19
1 3 1 2 4 5 6 6 8 9 10 12 11 11 12 13 16 19 20 22 24 25 25 25 25 24 22 23 24 23 23 23
6 4 4 3 3 3 5 8 9 10 8 12 13 15 17 18 19 20 21 23 24 25 25 27 28 26 26 24 14 22 26 25
9 9 10 10 8 6 6 6 9 11 17 19 20 21 19 19 19 20 21 21 23 24 24 26 28 28 29 20 10 15 17 22
14 12 10 10 9 7 9 9 12 13 15 18 21 21 21 21 21 21 22 21 23 24 24 24 25 28 27 29 33 31 16 12
10 9 9 10 10 8 8 11 14 14 13 16 20 20 21 22 21 20 20 20 20 20 21 22 23 25 25 25 24 26 29 14
10 11 10 10 10 11 11 8 11 14 17 20 22 25 25 24 22 20 16 14 12 11 9 8 11 13 14 14 11 8 10 11
11 12 13 12 10 11 9 10 13 16 19 22 27 29 28 26 21 16 11 8 6 3 4 5 6 5 5 6 6 6 7 5
12 13 14 13 13 14 15 15 16 18 20 23 26 27 24 20 12 8 6 4 3 1 2 4 5 3 4 6 6 5 4 2

GFSFLT2_925_spd_030.txt.gz
Wind_Speed
14 12 12 11 11 9 9 9 8 7 6 6 6 7 6 6 6 7 7 6 7 7 6 6 7 7 7 8 8 8 9 8
14 7 7 7 9 8 8 8 8 7 7 6 6 8 8 8 9 9 8 7 8 8 8 8 8 8 8 9 10 8 3 9
10 15 9 6 6 8 6 6 7 8 8 8 3 2 4 4 7 9 8 8 11 8 9 11 10 10 7 7 10 6 11 10
9 10 7 4 5 2 6 3 4 4 4 4 4 4 3 6 8 7 6 8 10 6 8 13 10 11 14 9 9 9 11 10
15 9 6 1 6 2 8 6 7 9 5 1 6 5 3 9 7 7 7 12 9 5 13 12 6 13 13 14 13 13 13 15
16 12 7 3 2 4 6 2 6 1 7 3 2 5 6 5 6 8 10 11 11 11 11 12 15 13 11 14 16 16 16 17
16 13 7 5 3 5 2 3 2 0 2 2 1 1 4 4 6 6 8 9 9 9 10 13 14 14 15 15 14 16 17 18
17 14 10 7 4 3 1 4 1 2 1 2 2 1 3 3 5 6 8 10 10 13 16 16 15 16 17 17 18 19 20 20
14 12 11 7 5 4 2 1 1 1 1 1 1 2 4 6 7 9 10 12 13 15 16 16 18 19 19 19 19 23 22 19
14 12 12 9 7 5 4 1 2 3 4 3 4 3 5 8 10 12 14 16 18 18 19 20 20 21 22 22 22 23 23 24
5 7 12 11 10 6 4 4 4 5 3 4 4 2 4 7 11 15 18 19 21 23 23 23 23 22 23 24 26 27 28 26
9 7 7 4 3 1 5 7 7 8 3 1 4 7 5 8 12 16 18 20 21 22 23 24 25 25 26 28 30 31 31 27
13 11 10 6 4 4 7 10 10 8 6 4 6 6 10 12 14 14 16 21 20 21 22 24 26 24 26 25 27 29 29 31
12 12 11 9 8 6 5 6 5 6 7 3 11 9 8 15 17 18 16 20 22 22 23 25 24 22 22 21 10 20 24 30
11 10 10 10 10 7 7 9 10 10 12 15 14 15 15 15 15 18 18 19 18 21 25 26 24 23 22 19 10 10 14 21
9 7 7 8 9 9 10 11 13 16 17 14 12 15 14 17 18 19 18 19 19 21 20 24 22 21 21 18 21 19 5 9
6 6 5 3 6 7 8 10 12 14 16 15 17 13 19 19 21 23 21 21 23 19 11 13 13 17 18 21 21 23 22 7
6 8 10 10 5 6 8 9 11 13 14 15 14 18 19 20 22 23 19 12 12 14 13 14 15 15 19 18 13 6 8 4
4 7 10 13 14 13 11 11 13 13 16 15 16 18 20 23 21 14 12 15 16 14 12 11 13 18 13 15 12 8 6 5
11 12 14 14 15 14 13 14 14 14 16 14 15 17 18 12 12 15 14 11 11 12 12 13 13 12 12 10 11 10 8 7

GFSFLT2_925_spd_033.txt.gz
Wind_Speed
17 16 15 14 13 13 13 13 12 11 10 10 12 11 11 11 10 10 8 7 7 7 8 8 9 9 9 11 12 11 10 10
17 14 13 12 14 12 13 12 13 13 12 12 11 10 8 8 8 7 7 8 8 7 9 11 10 9 7 9 11 10 9 12
16 14 11 11 13 12 11 12 12 12 11 9 8 4 4 7 6 3 5 6 7 6 8 11 9 9 11 11 12 12 11 13
17 16 10 8 8 6 8 10 10 10 8 4 6 3 1 5 5 4 5 7 6 3 8 9 6 7 12 13 9 11 12 13
19 14 9 5 6 5 8 10 10 9 9 5 7 0 3 1 2 3 6 7 6 7 8 9 9 12 15 13 13 16 18 15
20 14 11 6 6 9 9 11 11 11 10 9 7 3 5 3 4 5 6 8 9 10 8 8 10 13 16 16 16 17 16 15
22 16 11 8 8 5 6 7 10 8 8 7 3 6 1 2 2 3 5 6 9 6 9 13 16 17 17 17 18 19 20 20
25 18 16 12 9 6 5 7 5 6 8 7 4 5 2 2 2 3 6 9 10 12 15 17 18 18 20 19 20 21 24 24
27 23 23 20 15 8 6 10 7 5 7 5 3 4 5 4 4 5 8 10 14 16 19 19 21 23 24 24 24 24 26 27
29 27 20 14 12 13 8 8 6 6 6 6 6 6 4 4 4 8 11 15 18 19 20 25 26 26 27 26 26 27 29 31
15 19 10 9 11 8 5 5 5 6 6 7 9 8 5 5 9 12 13 17 19 20 20 21 22 25 27 27 28 30 30 29
24 21 17 10 9 5 0 3 2 4 4 5 2 2 6 7 8 11 14 17 20 20 22 23 24 27 30 30 30 29 30 30
19 23 18 15 13 9 7 9 6 6 6 3 5 3 2 7 12 13 15 16 19 22 21 22 26 27 28 25 24 24 26 27
19 15 13 15 13 11 9 10 8 8 11 13 12 10 11 11 12 14 15 15 16 16 20 24 24 18 16 19 6 15 19 19
17 13 11 9 10 8 5 6 9 14 16 15 14 12 11 13 14 16 17 18 18 20 22 17 14 13 13 9 4 4 17 16
11 7 5 7 8 7 8 7 8 12 14 15 13 11 14 16 17 18 20 20 19 15 9 11 13 13 11 14 15 9 5 8
7 10 7 4 6 6 6 4 6 8 10 11 11 14 15 18 20 24 21 13 10 13 15 14 13 11 11 10 13 17 10 5
5 8 13 16 15 14 11 10 10 9 11 9 11 13 15 16 16 13 13 16 19 18 14 13 14 14 17 20 10 6 7 5
11 12 13 12 11 10 10 12 12 13 13 10 12 13 11 11 13 15 20 19 15 13 14 17 17 18 13 12 10 11 11 10
4 5 5 8 10 13 13 14 15 12 12 16 11 7 9 10 13 17 16 13 14 15 15 13 14 12 11 11 10 13 13 15

GFSFLT2_925_spd_036.txt.gz
Wind_Speed
20 18 15 14 13 13 13 12 12 12 12 13 12 13 13 11 11 9 9 9 7 7 9 9 7 7 6 7 9 8 8 8
20 18 16 14 12 13 13 14 13 13 13 12 11 11 9 8 7 6 6 6 8 8 10 9 9 9 9 9 10 10 8 8
20 17 15 13 13 14 14 14 14 14 12 10 9 7 7 3 3 3 4 4 5 4 7 7 6 8 11 12 12 11 10 11
21 17 15 12 13 13 13 13 12 11 8 7 6 3 3 1 1 1 2 4 4 3 6 7 8 9 11 12 15 13 14 14
24 19 14 10 10 13 12 10 11 10 8 7 6 3 5 6 4 1 1 3 5 6 7 9 10 11 14 15 15 15 15 15
25 19 15 10 11 10 10 11 11 12 9 7 7 5 6 5 4 2 3 4 6 9 9 7 11 15 17 18 18 18 18 18
27 23 21 13 14 11 9 14 15 14 13 12 11 9 7 4 4 3 4 5 8 6 9 12 16 17 18 18 19 20 21 21
26 26 24 20 17 12 12 11 12 13 14 14 10 8 9 6 5 4 4 6 7 10 13 16 19 19 20 21 24 26 26 26
31 27 22 18 13 9 10 12 11 11 12 12 11 8 9 7 6 7 7 9 12 14 17 18 20 21 22 23 24 25 27 28
23 24 22 17 10 9 9 11 10 9 12 12 11 10 8 8 8 7 7 9 13 15 16 18 19 20 23 24 24 23 24 27
20 25 22 11 14 9 5 9 6 6 6 12 10 9 6 5 5 5 8 11 14 15 18 19 22 24 25 25 25 23 23 24
22 20 14 13 8 5 4 4 9 8 7 5 2 2 1 3 6 8 10 12 13 15 16 18 21 24 27 27 24 26 26 25
23 17 15 11 9 7 11 11 16 13 14 13 11 8 7 6 6 7 9 11 12 13 17 20 25 22 22 23 22 25 13 15
21 20 18 17 16 14 13 10 14 16 13 12 10 8 7 8 9 12 14 15 17 19 21 19 12 13 9 15 4 17 8 24
16 14 13 13 14 13 13 13 12 12 12 9 8 6 7 9 11 15 18 21 21 19 16 14 9 10 10 4 3 3 13 7
14 11 13 13 13 14 11 8 8 9 9 6 7 9 11 13 16 19 21 16 11 10 11 12 12 8 7 6 5 6 3 8
15 14 11 10 9 9 7 5 3 3 4 7 9 11 14 16 17 19 16 11 12 15 12 6 7 6 7 11 10 9 4 2
11 11 10 5 4 4 3 4 3 4 6 7 8 9 10 12 11 9 9 14 14 8 7 10 10 9 9 7 3 3 5 4
10 7 9 7 7 7 6 4 3 4 5 9 10 9 8 7 9 14 15 15 13 12 13 12 12 13 9 8 8 8 8 10
6 8 12 9 9 7 5 6 7 8 9 7 3 5 6 11 14 13 12 12 12 11 11 12 12 11 11 9 11 11 13 11

GFSFLT2_925_spd_039.txt.gz
Wind_Speed
19 16 14 13 13 13 13 12 12 12 12 10 11 12 10 9 9 9 8 8 8 10 11 10 10 10 11 12 12 11 10 9
19 17 14 14 14 12 13 12 12 12 12 11 10 8 7 6 6 5 5 6 6 7 8 8 9 9 11 11 13 12 10 9
19 17 15 14 14 13 13 13 12 11 11 10 8 6 4 3 2 1 2 2 2 3 4 6 6 8 10 11 11 13 12 12
21 19 17 16 15 14 14 14 13 12 10 8 5 4 3 1 1 2 4 4 2 3 4 5 7 9 10 12 12 12 12 12
24 20 17 16 16 16 14 13 12 11 9 8 7 5 5 7 5 5 6 6 6 6 7 8 8 9 12 14 14 13 15 16
26 22 20 18 16 17 16 15 14 11 10 8 8 7 6 6 6 5 6 7 8 9 8 7 10 13 14 15 16 16 17 17
28 25 22 20 17 15 16 15 15 13 12 11 10 7 7 6 6 6 6 7 8 7 9 11 14 15 15 16 17 19 20 21
30 28 23 20 19 14 13 13 15 15 15 13 12 9 10 9 7 6 7 8 8 10 12 14 16 17 18 18 19 19 18 18
32 29 24 17 12 8 7 8 10 9 10 12 13 12 10 9 8 7 6 8 10 11 12 14 17 18 19 21 22 23 23 23
27 23 15 12 6 4 1 5 8 7 10 12 12 10 8 6 5 4 5 8 11 13 15 17 18 19 22 23 24 24 22 22
20 16 13 10 2 2 5 5 3 2 3 6 4 3 2 2 2 2 6 8 11 12 13 17 20 23 25 26 26 25 22 20
17 16 10 5 4 12 15 15 16 13 12 8 4 3 3 3 6 7 8 10 12 14 15 18 20 20 23 23 23 22 19 7
13 7 9 7 9 12 13 17 15 15 13 11 8 7 7 9 9 10 12 14 16 19 22 23 22 19 12 20 20 11 14 16
21 20 18 15 15 15 12 12 11 8 7 8 7 8 8 8 9 11 14 18 21 20 18 15 11 14 10 14 4 12 6 21
18 17 16 15 12 10 9 7 5 3 2 2 1 4 5 7 9 12 16 18 15 13 14 15 15 17 12 4 4 3 11 6
17 15 13 10 6 4 2 1 2 0 2 2 1 3 8 10 13 14 16 14 14 15 17 16 11 11 12 5 9 10 2 4
16 13 11 10 7 4 4 4 2 2 1 2 4 6 8 9 9 9 9 10 13 14 8 6 8 11 10 10 10 11 9 3
14 12 10 7 7 7 6 5 2 1 5 5 7 8 6 5 6 9 12 11 10 9 9 9 10 9 10 9 5 5 7 8
8 6 7 6 6 5 4 4 3 4 6 9 10 8 5 6 11 13 10 10 9 9 9 8 8 8 9 10 9 12 11 11
4 8 9 6 4 4 4 3 5 9 10 8 5 5 7 10 11 10 9 9 9 11 12 11 11 12 14 14 15 15 14 13

GFSFLT2_925_spd_042.txt.gz
Wind_Speed
18 16 14 13 12 12 11 11 12 11 12 11 12 11 11 11 10 10 11 10 10 11 12 12 12 12 12 13 13 12 11 10
17 15 13 13 13 12 12 12 11 11 11 12 11 10 9 9 7 7 7 7 6 8 8 9 10 10 11 12 13 13 12 11
16 15 14 13 14 14 13 12 11 12 11 10 8 7 7 5 4 3 4 3 3 3 5 7 8 9 10 11 12 13 13 13
19 17 16 15 15 14 13 12 13 13 11 9 7 5 3 2 1 1 1 2 2 5 5 6 7 8 10 11 12 13 13 14
21 18 16 16 15 14 15 13 13 12 10 9 7 4 3 4 3 4 4 4 4 5 6 6 5 8 11 12 12 12 14 15
21 20 18 16 14 14 13 13 11 11 9 7 7 6 6 5 6 6 4 4 4 5 4 6 7 9 11 11 12 13 15 17
22 19 18 15 14 13 13 12 12 10 9 7 8 7 5 5 4 3 2 4 5 5 7 8 9 10 11 13 13 14 14 15
21 18 16 12 12 8 11 12 12 12 12 11 12 9 7 6 3 2 2 4 5 6 7 8 10 13 16 17 18 18 18 18
21 18 15 7 2 2 5 8 9 10 12 12 10 9 7 5 3 2 2 2 4 6 8 10 13 15 17 19 19 20 19 18
17 16 12 10 10 9 7 8 8 6 3 3 4 4 2 2 2 2 4 7 8 10 13 14 16 17 19 20 22 22 20 17
15 13 13 10 10 10 6 0 3 6 4 4 4 2 2 2 4 6 8 8 12 13 14 16 19 20 20 21 21 22 18 15
21 19 14 4 3 10 11 14 14 13 12 9 7 7 7 7 7 8 8 11 14 17 18 18 18 14 19 11 21 18 11 2
18 14 10 8 14 14 13 13 12 11 9 7 7 8 9 9 9 10 13 17 18 18 18 17 17 17 9 16 13 1 8 8
18 16 13 12 12 14 10 9 8 8 8 9 8 6 6 7 8 10 13 15 16 17 17 17 15 18 10 11 3 6 1 17
22 20 17 13 11 10 9 6 3 2 1 1 1 3 5 7 9 10 12 14 14 15 17 17 12 11 10 3 3 2 8 4
17 14 11 9 7 4 3 2 2 3 3 3 1 4 6 6 7 8 11 13 15 17 15 13 10 9 11 3 8 7 2 4
13 12 8 7 5 4 2 2 2 2 0 2 4 6 6 6 6 7 10 13 12 10 9 9 9 10 8 8 9 12 8 5
13 11 8 7 5 3 2 3 2 2 4 5 6 7 7 6 7 9 13 11 8 6 8 9 9 9 8 7 7 5 8 7
10 7 7 6 3 4 5 5 6 7 9 11 11 10 10 9 11 13 13 11 10 8 8 10 10 10 10 11 11 13 16 16
6 7 6 5 4 5 4 6 10 11 10 11 9 10 11 11 13 15 15 12 12 13 14 11 12 12 15 15 17 17 17 16